| time (UTC) | temp F | wind direction | speed MPH | gust MPH | rain 1hr in | rain 24hr in | rain mn in | humidity % | barometer mb |
| 20260504081518 | 50 | 200 | 4.0 | 10.0 | 0.00 | 0.00 | 0.00 | 70 | 1016.5 |
| 20260504050016 | 52 | 246 | 4.0 | 12.0 | 0.00 | 0.00 | 0.00 | 53 | 1016.0 |
| 20260504044519 | 52 | 219 | 5.0 | 13.0 | 0.00 | 0.00 | 0.00 | 53 | 1015.9 |
| 20260504043024 | 53 | 224 | 6.0 | 13.0 | 0.00 | 0.00 | 0.00 | 52 | 1015.8 |
| 20260504041527 | 53 | 234 | 9.0 | 14.0 | 0.00 | 0.00 | 0.00 | 51 | 1015.9 |
| 20260504040031 | 53 | 228 | 6.0 | 12.0 | 0.00 | 0.00 | 0.00 | 51 | 1015.6 |
| 20260504034531 | 53 | 241 | 6.0 | 12.0 | 0.00 | 0.00 | 0.00 | 52 | 1015.5 |
| 20260504033027 | 53 | 214 | 6.0 | 12.0 | 0.00 | 0.00 | 0.00 | 53 | 1015.5 |
| 20260504031524 | 53 | 214 | 4.0 | 12.0 | 0.00 | 0.00 | 0.00 | 53 | 1015.5 |
| 20260504030037 | 53 | 228 | 7.0 | 14.0 | 0.00 | 0.00 | 0.00 | 53 | 1015.5 |
| 20260504024526 | 53 | 240 | 4.0 | 11.0 | 0.00 | 0.00 | 0.00 | 55 | 1015.4 |
| 20260504023019 | 53 | 216 | 4.0 | 10.0 | 0.00 | 0.00 | 0.00 | 56 | 1015.3 |
| 20260504021524 | 53 | 231 | 5.0 | 10.0 | 0.00 | 0.00 | 0.00 | 53 | 1015.3 |
| 20260504020025 | 53 | 232 | 4.0 | 10.0 | 0.00 | 0.00 | 0.00 | 47 | 1015.3 |
| 20260504014528 | 54 | 246 | 4.0 | 10.0 | 0.00 | 0.00 | 0.00 | 46 | 1015.2 |
| 20260504013028 | 54 | 232 | 4.0 | 10.0 | 0.00 | 0.00 | 0.00 | 43 | 1015.1 |
| 20260504011522 | 54 | 232 | 3.0 | 8.0 | 0.00 | 0.00 | 0.00 | 42 | 1015.1 |
| 20260504010004 | 55 | 220 | 2.0 | 5.0 | 0.00 | 0.00 | 0.00 | 40 | 1014.9 |
| 20260504004508 | 55 | 238 | 3.0 | 9.0 | 0.00 | 0.00 | 0.00 | 38 | 1014.5 |
| 20260504003012 | 56 | 240 | 2.0 | 7.0 | 0.00 | 0.00 | 0.00 | 38 | 1014.4 |
| 20260504001516 | 57 | 242 | 2.0 | 7.0 | 0.00 | 0.00 | 0.00 | 37 | 1014.4 |
| 20260504000020 | 57 | 239 | 3.0 | 8.0 | 0.00 | 0.00 | 0.00 | 35 | 1014.4 |
| 20260503234508 | 58 | 257 | 4.0 | 13.0 | 0.00 | 0.00 | 0.00 | 35 | 1014.4 |
| 20260503233008 | 59 | 289 | 7.0 | 17.0 | 0.00 | 0.00 | 0.00 | 34 | 1014.0 |
| 20260503231517 | 60 | 273 | 6.0 | 13.0 | 0.00 | 0.00 | 0.00 | 34 | 1014.0 |
| 20260503230018 | 61 | 279 | 6.0 | 17.0 | 0.00 | 0.00 | 0.00 | 32 | 1014.0 |
| 20260503224519 | 61 | 275 | 5.0 | 18.0 | 0.00 | 0.00 | 0.00 | 32 | 1013.9 |
| 20260503223027 | 61 | 263 | 8.0 | 18.0 | 0.00 | 0.00 | 0.00 | 31 | 1013.7 |
| 20260503221508 | 61 | 321 | 8.0 | 16.0 | 0.00 | 0.00 | 0.00 | 32 | 1013.8 |
| 20260503220017 | 61 | 321 | 5.0 | 16.0 | 0.00 | 0.00 | 0.00 | 29 | 1013.8 |
| 20260503214515 | 61 | 302 | 9.0 | 21.0 | 0.00 | 0.00 | 0.00 | 31 | 1013.6 |
| 20260503213027 | 61 | 298 | 10.0 | 20.0 | 0.00 | 0.00 | 0.00 | 31 | 1013.4 |
| 20260503211529 | 61 | 262 | 9.0 | 21.0 | 0.00 | 0.00 | 0.00 | 32 | 1013.3 |
| 20260503210017 | 60 | 300 | 15.0 | 24.0 | 0.00 | 0.00 | 0.00 | 31 | 1013.4 |
| 20260503204514 | 60 | 290 | 12.0 | 25.0 | 0.00 | 0.00 | 0.00 | 31 | 1013.5 |
| 20260503203024 | 60 | 280 | 9.0 | 19.0 | 0.00 | 0.00 | 0.00 | 31 | 1013.4 |
| 20260503201526 | 60 | 315 | 10.0 | 20.0 | 0.00 | 0.00 | 0.00 | 31 | 1013.5 |
| 20260503200027 | 59 | 265 | 6.0 | 21.0 | 0.00 | 0.00 | 0.00 | 31 | 1013.7 |
| 20260503194519 | 59 | 285 | 14.0 | 26.0 | 0.00 | 0.00 | 0.00 | 32 | 1013.4 |
| 20260503193015 | 59 | 293 | 10.0 | 23.0 | 0.00 | 0.00 | 0.00 | 33 | 1013.6 |
| 20260503191521 | 59 | 298 | 10.0 | 23.0 | 0.00 | 0.00 | 0.00 | 33 | 1013.7 |
| 20260503190025 | 58 | 300 | 12.0 | 21.0 | 0.00 | 0.00 | 0.00 | 33 | 1013.8 |
| 20260503184528 | 58 | 284 | 14.0 | 23.0 | 0.00 | 0.00 | 0.00 | 34 | 1013.9 |
| 20260503183015 | 58 | 257 | 8.0 | 21.0 | 0.00 | 0.00 | 0.00 | 33 | 1014.0 |
| 20260503181519 | 58 | 343 | 8.0 | 20.0 | 0.00 | 0.00 | 0.00 | 34 | 1014.0 |
| 20260503180009 | 58 | 280 | 9.0 | 23.0 | 0.00 | 0.00 | 0.00 | 34 | 1014.0 |
| 20260503174518 | 58 | 322 | 9.0 | 17.0 | 0.00 | 0.00 | 0.00 | 35 | 1013.9 |
| 20260503173013 | 57 | 310 | 12.0 | 20.0 | 0.00 | 0.00 | 0.00 | 34 | 1014.0 |
| 20260503171522 | 56 | 311 | 9.0 | 22.0 | 0.00 | 0.00 | 0.00 | 36 | 1014.1 |